HSG005 ZJSY-ZJHK

Flight info

Callsign HSG005
Flight time 0h 43m
Altitude 14800
Route PORAP9YD PORAP PORAP7XA
Aircraft TBM9/L-SDFGRWY/S

Departure

Time 2026-05-04 00:54
Airport Sanya Phoenix International Airport (ZJSY)

Arrival

Time 2026-05-04 01:37
Airport Haikou Meilan International Airport (ZJHK)
Time Latitude Longitude Altitude Speed Heading
2026-05-04 00:33 18.30103 109.39721 81 ft 0 kts 82°
2026-05-04 00:52 18.30103 109.39723 81 ft 3 kts 81°
2026-05-04 00:53 18.30132 109.39869 83 ft 50 kts 72°
2026-05-04 00:53 18.30213 109.40486 137 ft 113 kts 82°
2026-05-04 00:53 18.30332 109.41448 335 ft 148 kts 83°
2026-05-04 00:53 18.30462 109.42572 686 ft 157 kts 85°
2026-05-04 00:54 18.30507 109.43723 1093 ft 159 kts 83°
2026-05-04 00:54 18.31027 109.44736 1425 ft 166 kts 38°
2026-05-04 00:54 18.32134 109.45017 1770 ft 171 kts 354°
2026-05-04 00:54 18.33301 109.44717 2148 ft 174 kts 350°
2026-05-04 00:55 18.34502 109.44578 2514 ft 173 kts
2026-05-04 00:55 18.35702 109.44733 2893 ft 172 kts 18°
2026-05-04 00:55 18.36773 109.45243 3264 ft 169 kts 31°
2026-05-04 00:55 18.37805 109.45861 3623 ft 172 kts 32°
2026-05-04 00:56 18.38851 109.46487 3986 ft 174 kts 32°
2026-05-04 00:56 18.39893 109.47105 4443 ft 170 kts 31°
2026-05-04 00:56 18.40925 109.47714 5055 ft 170 kts 29°
2026-05-04 00:56 18.41952 109.48324 5524 ft 169 kts 29°
2026-05-04 00:57 18.42974 109.48931 5993 ft 168 kts 29°
2026-05-04 00:57 18.43988 109.49533 6462 ft 167 kts 29°
2026-05-04 00:57 18.44998 109.50131 6932 ft 166 kts 29°
2026-05-04 00:57 18.46005 109.50730 7402 ft 166 kts 29°
2026-05-04 00:58 18.47012 109.51328 7873 ft 166 kts 29°
2026-05-04 00:58 18.48017 109.51925 8343 ft 166 kts 29°
2026-05-04 00:58 18.49021 109.52522 8813 ft 166 kts 29°
2026-05-04 00:58 18.50026 109.53118 9284 ft 165 kts 29°
2026-05-04 00:59 18.51026 109.53713 9753 ft 165 kts 29°
2026-05-04 00:59 18.52025 109.54307 10225 ft 165 kts 29°
2026-05-04 00:59 18.53021 109.54898 10695 ft 164 kts 29°
2026-05-04 00:59 18.54014 109.55489 11164 ft 164 kts 29°
2026-05-04 01:00 18.55005 109.56078 11636 ft 163 kts 29°
2026-05-04 01:00 18.55991 109.56664 12104 ft 163 kts 29°
2026-05-04 01:00 18.56977 109.57250 12573 ft 162 kts 29°
2026-05-04 01:00 18.57957 109.57833 13044 ft 162 kts 29°
2026-05-04 01:01 18.58939 109.58416 13514 ft 162 kts 29°
2026-05-04 01:01 18.59901 109.58992 13972 ft 147 kts 30°
2026-05-04 01:01 18.60794 109.59516 14433 ft 150 kts 28°
2026-05-04 01:01 18.61718 109.60066 14799 ft 162 kts 29°
2026-05-04 01:02 18.62811 109.60724 14823 ft 199 kts 30°
2026-05-04 01:02 18.64099 109.61506 14824 ft 226 kts 30°
2026-05-04 01:02 18.65524 109.62363 14822 ft 245 kts 30°
2026-05-04 01:02 18.67045 109.63269 14817 ft 257 kts 30°
2026-05-04 01:03 18.68646 109.64222 14818 ft 264 kts 30°
2026-05-04 01:03 18.70261 109.65186 14816 ft 269 kts 30°
2026-05-04 01:03 18.71898 109.66161 14816 ft 271 kts 30°
2026-05-04 01:03 18.73548 109.67145 14816 ft 273 kts 30°
2026-05-04 01:04 18.75204 109.68133 14811 ft 267 kts 30°
2026-05-04 01:04 18.76741 109.69046 14799 ft 253 kts 29°
2026-05-04 01:04 18.78311 109.69975 14799 ft 264 kts 30°
2026-05-04 01:04 18.79932 109.70952 14802 ft 272 kts 30°
2026-05-04 01:05 18.81588 109.71947 14805 ft 276 kts 30°
2026-05-04 01:05 18.83274 109.72952 14807 ft 279 kts 30°
2026-05-04 01:05 18.84968 109.73962 14810 ft 280 kts 30°
2026-05-04 01:05 18.86669 109.74979 14811 ft 281 kts 30°
2026-05-04 01:06 18.88374 109.75997 14810 ft 282 kts 30°
2026-05-04 01:06 18.90082 109.77018 14809 ft 282 kts 30°
2026-05-04 01:06 18.91794 109.78041 14808 ft 283 kts 30°
2026-05-04 01:06 18.93502 109.79064 14807 ft 282 kts 30°
2026-05-04 01:07 18.95212 109.80085 14806 ft 282 kts 30°
2026-05-04 01:07 18.96922 109.81109 14805 ft 283 kts 30°
2026-05-04 01:07 18.98633 109.82132 14802 ft 283 kts 30°
2026-05-04 01:07 19.00346 109.83157 14803 ft 283 kts 30°
2026-05-04 01:08 19.02055 109.84181 14800 ft 283 kts 30°
2026-05-04 01:08 19.03766 109.85206 14799 ft 282 kts 30°
2026-05-04 01:08 19.05476 109.86230 14798 ft 283 kts 30°
2026-05-04 01:08 19.07187 109.87252 14798 ft 282 kts 30°
2026-05-04 01:09 19.08896 109.88279 14798 ft 282 kts 30°
2026-05-04 01:09 19.10603 109.89302 14798 ft 282 kts 30°
2026-05-04 01:09 19.12312 109.90326 14798 ft 282 kts 30°
2026-05-04 01:09 19.14021 109.91350 14797 ft 283 kts 30°
2026-05-04 01:10 19.15731 109.92376 14798 ft 283 kts 30°
2026-05-04 01:10 19.17397 109.93377 14797 ft 249 kts 30°
2026-05-04 01:10 19.18767 109.94188 14795 ft 204 kts 29°
2026-05-04 01:10 19.19915 109.94868 14787 ft 178 kts 30°
2026-05-04 01:11 19.20941 109.95484 14791 ft 163 kts 30°
2026-05-04 01:11 19.21902 109.96059 14794 ft 155 kts 29°
2026-05-04 01:11 19.22820 109.96610 14794 ft 150 kts 29°
2026-05-04 01:11 19.23715 109.97147 14798 ft 146 kts 29°
2026-05-04 01:12 19.24593 109.97674 14796 ft 144 kts 29°
2026-05-04 01:12 19.25482 109.98146 14797 ft 142 kts 23°
2026-05-04 01:12 19.26380 109.98573 14797 ft 141 kts 24°
2026-05-04 01:12 19.27270 109.99004 14799 ft 140 kts 24°
2026-05-04 01:13 19.28161 109.99434 14797 ft 141 kts 24°
2026-05-04 01:13 19.29052 109.99863 14799 ft 141 kts 24°
2026-05-04 01:13 19.29940 110.00290 14799 ft 140 kts 24°
2026-05-04 01:13 19.30830 110.00717 14798 ft 140 kts 24°
2026-05-04 01:14 19.31716 110.01143 14797 ft 140 kts 24°
2026-05-04 01:14 19.32603 110.01568 14798 ft 140 kts 24°
2026-05-04 01:14 19.33486 110.01993 14798 ft 139 kts 24°
2026-05-04 01:14 19.34369 110.02419 14798 ft 140 kts 24°
2026-05-04 01:15 19.35256 110.02843 14797 ft 140 kts 24°
2026-05-04 01:15 19.36143 110.03269 14798 ft 140 kts 24°
2026-05-04 01:15 19.37029 110.03696 14798 ft 140 kts 24°
2026-05-04 01:15 19.37916 110.04124 14799 ft 140 kts 24°
2026-05-04 01:16 19.38806 110.04551 14801 ft 140 kts 24°
2026-05-04 01:16 19.39697 110.04979 14799 ft 141 kts 24°
2026-05-04 01:16 19.40587 110.05407 14799 ft 140 kts 24°
2026-05-04 01:16 19.41476 110.05835 14799 ft 140 kts 24°
2026-05-04 01:17 19.42366 110.06262 14799 ft 141 kts 24°
2026-05-04 01:17 19.43256 110.06692 14800 ft 141 kts 24°
2026-05-04 01:17 19.44146 110.07120 14798 ft 140 kts 24°
2026-05-04 01:17 19.45034 110.07547 14799 ft 140 kts 24°
2026-05-04 01:18 19.45922 110.07974 14799 ft 140 kts 24°
2026-05-04 01:18 19.46820 110.08406 14798 ft 140 kts 24°
2026-05-04 01:18 19.47706 110.08835 14798 ft 140 kts 24°
2026-05-04 01:18 19.48592 110.09260 14797 ft 140 kts 24°
2026-05-04 01:19 19.49477 110.09686 14798 ft 140 kts 24°
2026-05-04 01:19 19.50362 110.10112 14797 ft 140 kts 24°
2026-05-04 01:19 19.51246 110.10538 14797 ft 140 kts 24°
2026-05-04 01:19 19.52131 110.10963 14799 ft 140 kts 24°
2026-05-04 01:20 19.53016 110.11390 14797 ft 140 kts 24°
2026-05-04 01:20 19.53903 110.11818 14799 ft 140 kts 24°
2026-05-04 01:20 19.54790 110.12246 14800 ft 140 kts 25°
2026-05-04 01:20 19.55678 110.12674 14798 ft 140 kts 24°
2026-05-04 01:21 19.56564 110.13101 14798 ft 140 kts 24°
2026-05-04 01:21 19.57448 110.13528 14797 ft 140 kts 24°
2026-05-04 01:21 19.58331 110.13953 14797 ft 139 kts 24°
2026-05-04 01:21 19.59212 110.14378 14798 ft 139 kts 24°
2026-05-04 01:22 19.60094 110.14803 14798 ft 139 kts 24°
2026-05-04 01:22 19.60978 110.15229 14799 ft 140 kts 24°
2026-05-04 01:22 19.61865 110.15657 14801 ft 141 kts 24°
2026-05-04 01:22 19.62757 110.16088 14803 ft 141 kts 24°
2026-05-04 01:23 19.63650 110.16519 14802 ft 141 kts 24°
2026-05-04 01:23 19.64543 110.16949 14804 ft 141 kts 24°
2026-05-04 01:23 19.65436 110.17381 14804 ft 141 kts 24°
2026-05-04 01:23 19.66327 110.17811 14803 ft 140 kts 24°
2026-05-04 01:24 19.67222 110.18242 14809 ft 148 kts 23°
2026-05-04 01:24 19.68290 110.18749 14831 ft 186 kts 25°
2026-05-04 01:24 19.69556 110.19375 14831 ft 214 kts 25°
2026-05-04 01:24 19.70972 110.20071 14827 ft 234 kts 25°
2026-05-04 01:25 19.72497 110.20809 14821 ft 246 kts 25°
2026-05-04 01:25 19.73595 110.21238 14812 ft 252 kts 13°
2026-05-04 01:25 19.75352 110.21365 14810 ft 256 kts 355°
2026-05-04 01:25 19.77083 110.20896 14800 ft 259 kts 336°
2026-05-04 01:26 19.78597 110.19860 14799 ft 261 kts 319°
2026-05-04 01:26 19.79918 110.18585 14798 ft 240 kts 318°
2026-05-04 01:26 19.81041 110.17513 14798 ft 196 kts 318°
2026-05-04 01:26 19.81984 110.16612 14792 ft 172 kts 318°
2026-05-04 01:27 19.82838 110.15796 14795 ft 159 kts 318°
2026-05-04 01:27 19.83641 110.15032 14794 ft 151 kts 318°
2026-05-04 01:27 19.84397 110.14286 14795 ft 146 kts 310°
2026-05-04 01:27 19.84825 110.13274 14810 ft 165 kts 280°
2026-05-04 01:28 19.84857 110.11987 14825 ft 184 kts 269°
2026-05-04 01:28 19.84876 110.10504 14317 ft 219 kts 278°
2026-05-04 01:28 19.85546 110.08980 13693 ft 240 kts 310°
2026-05-04 01:28 19.86957 110.07911 12334 ft 261 kts 340°
2026-05-04 01:29 19.88760 110.07640 10946 ft 265 kts
2026-05-04 01:29 19.90524 110.08138 9500 ft 262 kts 26°
2026-05-04 01:29 19.91929 110.09368 7764 ft 264 kts 52°
2026-05-04 01:29 19.92713 110.11103 6039 ft 259 kts 75°
2026-05-04 01:30 19.93110 110.12949 4317 ft 254 kts 78°
2026-05-04 01:30 19.93367 110.14772 3111 ft 241 kts 90°
2026-05-04 01:30 19.93332 110.16417 3000 ft 207 kts 90°
2026-05-04 01:30 19.93360 110.17904 3002 ft 192 kts 89°
2026-05-04 01:31 19.93366 110.19295 2998 ft 185 kts 91°
2026-05-04 01:31 19.93361 110.20648 3007 ft 182 kts 91°
2026-05-04 01:31 19.93358 110.21993 3001 ft 181 kts 91°
2026-05-04 01:31 19.93357 110.23333 2941 ft 183 kts 90°
2026-05-04 01:32 19.93354 110.24744 2538 ft 196 kts 91°
2026-05-04 01:32 19.93347 110.26219 2160 ft 203 kts 91°
2026-05-04 01:32 19.93338 110.27698 2012 ft 193 kts 90°
2026-05-04 01:32 19.93355 110.29090 2007 ft 185 kts 90°
2026-05-04 01:33 19.93356 110.30444 1940 ft 184 kts 91°
2026-05-04 01:33 19.93354 110.31820 1766 ft 188 kts 90°
2026-05-04 01:33 19.93350 110.33222 1481 ft 193 kts 91°
2026-05-04 01:33 19.93338 110.34666 1111 ft 197 kts 91°
2026-05-04 01:34 19.93339 110.36091 958 ft 183 kts 90°
2026-05-04 01:34 19.93368 110.37317 715 ft 152 kts 86°
2026-05-04 01:34 19.93442 110.38371 633 ft 134 kts 88°
2026-05-04 01:34 19.93467 110.39300 614 ft 112 kts 91°
2026-05-04 01:35 19.93476 110.40058 591 ft 97 kts 89°
2026-05-04 01:35 19.93473 110.40770 453 ft 95 kts 91°
2026-05-04 01:35 19.93469 110.41459 336 ft 91 kts 90°
2026-05-04 01:35 19.93476 110.42109 272 ft 86 kts 88°
2026-05-04 01:36 19.93480 110.42738 205 ft 83 kts 90°
2026-05-04 01:36 19.93473 110.43348 144 ft 81 kts 89°
2026-05-04 01:36 19.93487 110.43927 118 ft 76 kts 90°
2026-05-04 01:36 19.93485 110.44483 85 ft 75 kts 89°
2026-05-04 01:37 19.93489 110.45031 70 ft 73 kts 90°
2026-05-04 01:37 19.93490 110.45571 67 ft 73 kts 90°
2026-05-04 01:37 19.93491 110.45933 65 ft 13 kts 91°
2026-05-04 01:37 19.93509 110.46015 64 ft 12 kts 70°
2026-05-04 01:38 19.93544 110.46109 64 ft 16 kts 64°
2026-05-04 01:38 19.93592 110.46215 57 ft 13 kts 66°
2026-05-04 01:38 19.93673 110.46288 61 ft 11 kts
2026-05-04 01:38 19.93690 110.46288 63 ft 3 kts
2026-05-04 01:39 19.93757 110.46297 63 ft 14 kts 360°
2026-05-04 01:39 19.93860 110.46258 63 ft 18 kts 323°
2026-05-04 01:39 19.93473 110.41074 398 ft 94 kts 90°
2026-05-04 01:39 19.93471 110.41750 312 ft 87 kts 90°
2026-05-04 01:40 19.93481 110.42388 238 ft 85 kts 90°
2026-05-04 01:40 19.93479 110.43007 173 ft 83 kts 91°
2026-05-04 01:40 19.93480 110.43607 134 ft 78 kts 88°
2026-05-04 01:40 19.93484 110.44174 105 ft 75 kts 91°
2026-05-04 01:41 19.93486 110.44725 77 ft 74 kts 89°
2026-05-04 01:41 19.93489 110.45268 68 ft 73 kts 90°
2026-05-04 01:41 19.93486 110.45803 65 ft 62 kts 91°
2026-05-04 01:41 19.93479 110.45906 58 ft 12 kts 360°
2026-05-04 01:42 19.93488 110.45912 65 ft 8 kts 67°
2026-05-04 01:42 19.93486 110.45909 65 ft 7 kts 49°
2026-05-04 01:42 19.93479 110.45906 58 ft 7 kts 358°
2026-05-04 01:42 19.93471 110.45912 58 ft 6 kts 293°
2026-05-04 01:43 19.93494 110.45858 65 ft 16 kts 280°
2026-05-04 01:43 19.93573 110.45653 65 ft 35 kts 306°
2026-05-04 01:43 19.93768 110.45575 63 ft 26 kts 360°
2026-05-04 01:43 19.93843 110.45584 57 ft 11 kts 358°
2026-05-04 01:44 19.93931 110.45575 63 ft 14 kts
2026-05-04 01:44 19.94021 110.45565 62 ft 5 kts 358°
2026-05-04 01:44 19.94023 110.45566 60 ft 0 kts